Location: Austin
(30.3000°N, 97.7500°W)
Time: 06:32:04
(UTC-05:00)

NOSS 3-3 (C) - Pass Details

Date: 16 June 2025
Orbit: 715 x 1499 km, 63.4° (Epoch: 05 July)

Event Time Altitude Azimuth Distance (km) Brightness Sun altitude
Exits shadow 03:33:16 45° 100° (E) 1,036 4.2 -28.9°
Drops below altitude 10° 03:38:04 10° 42° (NE) 2,436 7.0 -28.4°
Sets 03:40:47 0° 36° (NE) 3,476 8.2 -28.1°
